This is the latest recevied weather packets stored in our database for station/object KE0QIB. If no packets are shown the sender has not sent any weather packets the latest 10 day(s).
| Time | Temp. | Humidity | Pressure | Rain* | Wind** | Luminosity | Snow |
|---|---|---|---|---|---|---|---|
| 1777196840 | 2.78° C | 69% | 999.8 hPa | 0 mm | - | - | - |
| 1777196540 | 2.78° C | 69% | 999.8 hPa | 0 mm | - | - | - |
| 1777196240 | 2.22° C | 71% | 999.8 hPa | 0 mm | - | - | - |
| 1777195940 | 2.22° C | 73% | 999.8 hPa | 0 mm | - | - | - |
| 1777195640 | 2.22° C | 75% | 999.8 hPa | 0 mm | - | - | - |
| 1777195340 | 1.67° C | 78% | 1000.1 hPa | 0 mm | - | - | - |
| 1777195040 | 1.11° C | 79% | 1000.1 hPa | 0 mm | - | - | - |
| 1777194740 | 1.11° C | 80% | 1000.1 hPa | 0 mm | - | - | - |
| 1777194440 | 1.11° C | 81% | 1000.2 hPa | 0 mm | - | - | - |
| 1777194140 | 1.11° C | 81% | 1000.2 hPa | 0 mm | - | - | - |
| 1777193840 | 1.11° C | 82% | 1000.2 hPa | 0 mm | - | - | - |
| 1777193540 | 0.56° C | 84% | 1000.7 hPa | 0 mm | - | - | - |
| 1777193240 | 0.56° C | 86% | 1000.7 hPa | 0 mm | - | - | - |
| 1777192940 | 0.56° C | 86% | 1000.7 hPa | 0 mm | - | - | - |
| 1777192640 | 0° C | 87% | 1000.9 hPa | 0 mm | - | - | - |
| 1777192340 | 0° C | 88% | 1000.9 hPa | 0 mm | - | - | - |
| 1777192040 | 0° C | 88% | 1000.9 hPa | 0 mm | - | - | - |
| 1777191740 | 0° C | 87% | 1001.1 hPa | 0 mm | - | - | - |
| 1777191440 | 0° C | 87% | 1001.1 hPa | 0 mm | - | - | - |
| 1777191140 | 0° C | 87% | 1001.1 hPa | 0 mm | - | - | - |
| 1777190840 | 0° C | 87% | 1001.3 hPa | 0 mm | - | - | - |
| 1777190540 | 0° C | 88% | 1001.3 hPa | 0 mm | - | - | - |
| 1777190240 | -0.56° C | 88% | 1001.3 hPa | 0 mm | - | - | - |
| 1777189940 | -0.56° C | 88% | 1001.4 hPa | 0 mm | - | - | - |
| 1777189640 | -0.56° C | 88% | 1001.4 hPa | 0 mm | - | - | - |
* Rain latest hour (hover to see other rain measurements)
** Current wind speed in m/s (hover to see current wind gust speed)